User: anonymous   Login
Location: Unspecified
(0.0000°N, 0.0000°E)
Time: 21:25:50
(UTC+02:00)
Language:

ATLAS 3B CENTAUR R/B - Orbit

View from above orbital plane
View from above orbital plane
View from above satellite
View from above satellite

Ground track
Ground track

The orbit data is extracted from the following two-line orbital elements,

1 28118U 03057B   15116.39976931  .00110261  00000-0  19585-2 0  9997
2 28118 028.1274 209.2932 3639075 064.2214 001.2601 08.21443309220508
Epoch (UTC): 26 April 2015 09:35:40
Eccentricity: 0.3639075
inclination: 28.1274°
perigee height: 222 km
apogee height: 7773 km
right ascension of ascending node: 209.2932°
argument of perigee: 64.2214°
revolutions per day: 8.21443309
mean anomaly at epoch: 1.2601°
orbit number at epoch: 22050

The dashed part of the orbit path shows where the satellite is in the earth's shadow,  

DLR